Simultaneous Nadir Overpasses (SNOs) Predictions

Prediction of SNOs between METOP-A and TERRA Satellite Orbit:

Table of predicted SNOs for the next 14.0 days since TLE Epoch: 4/27/2012
Index Date (METOP-A) Time (METOP-A) METOP-A Lat,Lon Date (TERRA) Time (TERRA) TERRA Lat,Lon Distance(km) Time Diff (sec)
1 04/28/2012 05:44:44 81.30, 141.02 04/28/2012 05:45:02 81.31, 141.08 1.41 18
2 04/28/2012 06:35:24 -81.31, -51.50 04/28/2012 06:34:29 -81.31, -51.37 2.26 55
3 05/01/2012 01:19:08 81.30,-152.62 05/01/2012 01:19:18 81.31,-152.63 0.21 10
4 05/01/2012 02:09:48 -81.31, 14.88 05/01/2012 02:08:45 -81.30, 14.95 1.25 63
5 05/03/2012 20:53:31 81.30, -86.27 05/03/2012 20:53:32 81.31, -86.17 1.87 1
6 05/03/2012 21:44:11 -81.31, 81.26 05/03/2012 21:42:59 -81.31, 81.44 3.02 72
7 05/06/2012 15:37:15
